Temp
27 26 25 23 22 21 20 19 18 18 17 17 17 16 16 16 16 15 14 14 14 14 14 14 13 13 13 12 12 12 12 13
27 26 24 22 21 20 19 19 18 17 17 16 16 16 16 16 16 16 15 15 14 14 14 14 14 14 13 13 12 12 12 12
26 25 23 22 20 20 19 18 18 17 17 17 17 17 17 16 16 16 15 14 14 14 14 14 13 13 13 13 12 12 12 12
24 24 23 22 20 19 19 19 19 18 17 17 17 17 16 16 16 15 14 14 14 14 14 13 13 13 12 12 12 12 12 12
24 24 23 22 21 20 19 18 19 19 18 17 17 17 16 16 16 16 15 15 14 14 13 13 13 12 12 12 12 11 11 11
23 23 23 22 21 20 19 18 18 18 18 17 17 16 16 16 15 15 15 14 14 13 13 12 12 11 11 11 10 10 10 10
23 23 23 22 21 20 19 18 18 18 18 18 17 16 15 15 15 14 14 13 13 12 11 11 10 10 9 9 9 9 9 9
22 21 22 21 21 21 20 19 18 18 18 17 17 16 15 14 14 13 12 11 11 10 10 9 8 8 8 8 8 8 8 8
22 22 22 21 20 20 20 20 20 19 18 17 17 16 15 14 13 12 10 9 9 9 8 8 8 7 7 7 7 7 7 7
22 22 21 20 20 19 19 19 18 18 18 18 17 16 14 12 11 10 9 8 8 8 7 7 7 7 7 7 6 6 6 6
21 21 20 19 19 19 18 18 18 17 16 15 14 12 11 10 9 8 8 8 7 7 6 6 6 6 6 6 6 6 6 6
21 20 20 18 18 17 17 17 16 15 14 13 10 9 9 8 8 7 7 6 6 6 6 6 5 5 5 5 5 5 5 5
20 20 19 18 17 15 15 16 15 14 13 10 9 8 8 7 7 7 6 6 5 6 5 5 5 5 5 5 5 5 5 5
19 19 18 16 15 14 14 15 14 13 11 9 8 8 7 7 6 5 5 5 5 5 5 5 5 4 4 4 4 4 4 4
19 17 16 15 14 13 14 14 14 12 10 9 8 8 7 7 6 5 5 5 5 5 4 4 4 3 3 3 3 3 3 3
15 14 15 14 13 12 13 12 13 11 10 9 9 7 6 5 6 5 5 5 4 4 4 3 3 3 3 3 3 2 1 0
13 14 13 12 12 12 11 11 12 11 9 7 5 5 6 6 5 5 5 4 4 4 3 3 3 2 2 2 1 -0 -1 -2
13 12 11 12 11 9 9 9 8 7 5 4 4 4 6 6 5 5 4 4 4 3 2 2 2 1 1 -0 -1 -2 -3 -3
12 11 12 11 9 7 7 6 7 5 4 4 5 6 6 5 5 4 4 3 2 2 2 1 0 -1 -2 -2 -3 -3 -4 -4
Height
765 770 777 783 789 792 794 796 797 798 799 800 800 801 801 800 801 801 802 803 803 803 802 802 803 803 804 804 804 804 802 800
766 769 776 782 788 791 794 796 797 798 800 800 801 800 800 800 800 801 801 802 802 802 801 801 801 801 802 802 802 802 801 799
770 773 777 782 787 790 792 793 795 796 798 798 798 798 797 796 797 796 797 799 799 799 799 798 799 798 799 799 798 798 797 796
774 776 779 781 784 787 789 789 789 789 790 793 793 792 792 792 792 792 792 793 794 795 795 795 796 796 796 796 796 795 794 794
774 775 777 779 780 782 784 785 785 785 785 786 787 786 786 788 787 787 787 787 789 791 792 793 793 793 793 793 793 792 792 790
775 775 775 775 777 778 780 782 781 781 781 779 779 780 781 782 783 783 784 785 785 785 787 789 791 791 790 789 789 789 788 787
774 774 773 774 775 775 776 777 777 776 776 775 773 773 776 777 778 778 778 779 780 781 784 787 788 788 788 787 787 786 784 783
773 774 773 772 773 774 773 771 770 770 770 770 770 768 770 772 775 775 776 775 778 779 781 784 787 787 787 786 784 783 781 780
769 770 771 771 771 771 771 769 766 763 760 759 759 761 763 766 770 771 773 775 775 777 779 784 786 784 784 783 780 778 777 775
766 767 769 770 769 768 767 765 762 759 756 754 752 753 757 760 765 768 772 776 778 778 780 781 782 781 779 777 774 772 771 769
765 765 767 768 768 765 764 761 757 755 754 752 750 752 754 759 763 769 774 775 776 779 778 778 777 775 773 771 768 766 765 762
763 763 764 765 765 765 761 758 754 751 751 751 751 753 757 760 765 769 772 775 777 777 775 773 771 769 767 764 762 760 758 756
763 763 761 762 763 762 759 753 750 748 749 750 753 756 758 761 766 768 771 772 773 771 769 767 765 762 760 758 755 754 751 749
763 762 761 762 762 760 757 751 747 745 747 751 755 758 761 763 765 765 767 769 768 766 764 761 759 756 754 751 749 747 745 743
761 762 763 761 759 758 753 749 745 743 746 750 753 757 759 762 763 764 766 765 763 761 759 756 753 750 748 745 743 740 738 736
768 766 762 760 757 754 749 747 743 742 746 749 752 754 756 760 761 761 761 761 758 756 753 750 747 744 741 739 736 733 731 729
770 765 763 759 753 750 749 747 743 742 745 748 752 756 756 757 758 757 757 755 753 750 747 744 741 738 735 733 730 727 726 724
764 762 759 753 751 750 749 747 745 744 746 750 753 754 754 754 755 754 752 751 748 744 741 739 735 732 730 728 725 722 720 717
761 758 753 751 750 749 747 746 746 746 748 749 749 749 750 751 751 750 748 746 743 740 737 734 730 728 725 722 719 716 712 708
Wind_Speed
16 17 11 11 8 9 9 10 11 11 10 11 8 10 12 9 10 12 10 9 5 4 4 2 2 4 3 7 9 11 13 15
8 9 11 10 9 9 11 12 12 12 12 11 12 12 14 13 14 12 9 10 8 6 4 2 3 4 7 8 9 10 15 16
7 4 8 9 11 13 14 15 15 15 15 15 17 16 17 20 17 18 15 12 11 9 9 5 5 4 8 11 10 10 12 16
5 0 4 7 12 14 15 17 18 19 20 19 19 19 17 13 15 12 16 19 17 14 13 10 8 6 8 10 13 16 18 14
4 0 3 6 14 15 16 18 20 21 20 22 23 19 18 22 24 24 29 26 21 17 13 12 10 8 10 12 12 13 17 18
6 7 7 5 6 12 16 18 21 23 23 24 26 25 22 21 16 14 11 10 8 7 8 11 12 9 10 12 16 18 19 19
5 10 8 11 7 7 12 18 23 25 26 27 26 28 24 15 18 7 5 4 4 1 1 3 5 8 10 13 16 18 20 23
5 7 11 10 12 15 13 19 23 25 25 27 30 26 25 23 19 11 9 6 2 3 8 10 11 13 16 20 21 23 23 25
6 6 8 10 13 17 18 22 25 24 27 30 29 30 24 20 17 10 6 2 4 7 6 10 12 14 19 21 23 24 24 25
7 7 11 11 13 16 23 28 26 25 26 28 25 22 19 11 7 7 3 2 4 3 6 10 16 18 20 22 24 24 24 26
6 6 12 17 23 21 26 24 21 21 21 12 6 6 7 6 5 3 3 3 8 10 11 15 19 21 23 24 25 24 25 27
5 4 9 15 19 23 27 26 18 16 14 10 5 6 6 7 6 5 2 7 12 17 19 18 21 23 25 25 26 27 28 29
11 13 14 16 16 25 31 25 17 11 10 3 5 6 7 7 7 2 5 11 19 17 20 22 24 26 26 27 28 28 28 29
15 17 13 16 23 31 32 24 16 7 4 5 6 6 7 7 6 8 12 17 16 20 22 24 26 26 27 28 29 29 30 30
16 12 14 18 24 29 24 24 17 5 6 8 10 10 10 8 8 8 15 17 19 21 24 26 27 28 27 27 27 29 29 28
17 17 16 22 25 27 20 26 13 6 8 9 6 5 9 12 9 13 15 18 22 24 25 27 26 25 25 25 23 22 22 25
19 18 19 25 22 21 19 22 11 4 4 5 10 11 10 8 12 13 19 22 22 24 25 25 26 24 23 26 27 22 21 24
16 13 19 24 21 14 16 17 12 8 8 5 8 11 12 11 11 17 19 22 22 23 24 24 24 25 23 24 25 24 23 26
19 19 22 19 15 13 15 11 9 2 3 11 14 9 7 10 15 18 20 21 22 23 23 23 23 22 26 30 34 32 28 29
Wind_Direction
210 199 206 187 221 227 238 227 227 225 227 226 218 224 232 217 219 213 194 207 200 214 227 222 310 293 305 327 327 324 317 308
342 163 168 186 222 225 239 243 236 223 233 231 234 227 233 230 236 219 206 228 214 227 259 316 294 299 338 318 312 321 319 314
23 53 173 199 228 242 236 244 242 227 235 240 242 240 237 230 231 230 208 225 231 238 247 247 278 304 305 309 294 298 301 309
8 259 283 219 225 239 252 248 247 234 226 244 246 240 255 265 240 233 215 227 228 237 250 254 267 277 289 305 310 304 297 310
7 150 251 258 232 232 240 255 254 252 237 225 246 243 224 236 243 241 239 235 227 226 248 266 273 273 280 289 295 307 313 307
2 344 349 271 292 233 237 251 256 255 255 241 231 244 249 252 268 272 259 222 249 272 271 289 283 285 288 305 312 306 299 295
348 321 323 339 320 239 247 253 257 258 253 252 241 232 240 255 249 260 244 217 234 160 206 308 315 310 308 306 298 296 296 292
11 341 337 345 332 327 282 248 249 255 260 261 251 243 231 242 258 261 239 215 219 332 325 333 310 301 294 291 289 286 285 283
337 322 331 338 352 341 313 295 291 279 261 253 249 241 230 237 241 232 190 213 261 287 269 277 286 282 279 279 278 277 279 279
342 334 337 360 347 325 309 294 304 301 296 295 248 237 222 211 201 201 209 240 270 300 294 290 289 283 282 282 279 278 273 272
350 349 8 356 342 331 335 315 302 311 321 309 230 191 172 162 143 138 196 302 315 280 290 281 283 283 282 280 278 277 274 273
354 15 357 356 341 344 333 316 316 307 309 295 188 150 161 159 160 189 289 299 298 297 284 286 285 283 282 281 278 276 273 273
6 350 335 352 351 339 327 314 306 290 299 170 147 167 167 168 176 262 289 281 281 279 287 284 283 283 283 281 279 277 276 276
349 331 1 353 342 338 316 318 309 289 191 174 171 187 202 207 275 284 287 270 288 286 287 288 287 286 285 282 281 280 279 278
339 2 349 340 333 319 312 322 306 228 202 193 189 201 224 277 281 288 275 280 285 291 291 290 288 286 284 284 284 282 280 279
355 338 329 329 321 315 327 320 296 222 215 206 229 291 286 269 257 272 284 288 289 289 291 289 290 290 287 287 290 293 292 290
335 320 331 314 317 313 336 324 307 236 202 327 313 287 274 260 272 279 286 287 294 294 292 295 296 295 295 300 303 303 295 288
318 316 307 303 332 348 333 344 351 353 351 329 279 270 255 269 284 288 295 299 298 299 301 301 301 301 302 305 311 307 297 287
314 308 304 325 323 329 324 316 308 343 273 260 247 246 278 296 295 298 299 304 305 304 303 304 306 311 310 309 303 301 293 284